User: anonymous   Login
Location: Fort Wayne
(41.1310°N, 85.1290°W)
Time: 22:30:19
(UTC-05:00)
Language:

Cosmos 2056 Rocket - Orbit

View from above orbital plane
View from above orbital plane
View from above satellite
View from above satellite

Ground track
Ground track

The orbit data is extracted from the following two-line orbital elements,

1 20433U 90004B   15060.22690479  .00000199  00000-0  76993-4 0  9993
2 20433 074.0344 096.1395 0039803 069.1906 356.4257 14.35790109314787
Epoch (UTC): 01 March 2015 05:26:44
Eccentricity: 0.0039803
inclination: 74.0344°
perigee height: 744 km
apogee height: 801 km
right ascension of ascending node: 96.1395°
argument of perigee: 69.1906°
revolutions per day: 14.35790109
mean anomaly at epoch: 356.4257°
orbit number at epoch: 31478

The dashed part of the orbit path shows where the satellite is in the earth's shadow,  

DLR